VIR127C EGCC-KJFK

Flight info

Callsign VIR127C
Flight time N/A
Altitude 36000
Route ASMIM L975 WAL L10 PENIL M144 BAGSO DCT VENER/M085F360 DCT 5430N02000W 5430N03000W 54N040W 53N050W DCT RIKAL/N0485F360 N572A TOPPS DCT ENE PARCH4
Aircraft A35K/H-SDE2E3GHIJ3J4J5LM1ORWXY/LB1D1

Departure

Time 2026-05-06 17:08
Airport Manchester Airport (EGCC)

Arrival

Time N/A
Airport John F. Kennedy International Airport (KJFK)
Time Latitude Longitude Altitude Speed Heading
2026-05-06 16:13 53.36574 -2.27969 261 ft 0 kts 45°
2026-05-06 16:53 53.36570 -2.27976 262 ft 3 kts 45°
2026-05-06 16:53 53.36556 -2.28000 262 ft 3 kts 45°
2026-05-06 16:54 53.36543 -2.28021 263 ft 2 kts 45°
2026-05-06 16:54 53.36532 -2.28044 264 ft 3 kts 78°
2026-05-06 16:54 53.36532 -2.28071 265 ft 3 kts 126°
2026-05-06 16:54 53.36536 -2.28079 267 ft 3 kts 135°
2026-05-06 16:55 53.36521 -2.28055 264 ft 2 kts 135°
2026-05-06 16:55 53.36520 -2.28053 264 ft 0 kts 135°
2026-05-06 17:00 53.36520 -2.28052 261 ft 1 kts 135°
2026-05-06 17:01 53.36477 -2.27997 261 ft 12 kts 140°
2026-05-06 17:01 53.36401 -2.27945 261 ft 12 kts 193°
2026-05-06 17:01 53.36326 -2.28032 261 ft 14 kts 209°
2026-05-06 17:01 53.36249 -2.28082 261 ft 0 kts 212°
2026-05-06 17:02 53.36210 -2.28132 261 ft 12 kts 212°
2026-05-06 17:02 53.36144 -2.28122 261 ft 11 kts 142°
2026-05-06 17:02 53.36087 -2.28041 261 ft 7 kts 139°
2026-05-06 17:02 53.36029 -2.27956 261 ft 16 kts 138°
2026-05-06 17:03 53.35941 -2.27860 261 ft 16 kts 165°
2026-05-06 17:03 53.35822 -2.27862 257 ft 20 kts 185°
2026-05-06 17:03 53.35676 -2.27886 249 ft 17 kts 185°
2026-05-06 17:03 53.35577 -2.28003 243 ft 20 kts 229°
2026-05-06 17:04 53.35458 -2.28143 241 ft 22 kts 196°
2026-05-06 17:04 53.35310 -2.28211 239 ft 24 kts 204°
2026-05-06 17:04 53.35182 -2.28402 239 ft 26 kts 231°
2026-05-06 17:04 53.35118 -2.28536 236 ft 11 kts 231°
2026-05-06 17:05 53.35070 -2.28637 238 ft 12 kts 231°
2026-05-06 17:05 53.35003 -2.28760 235 ft 18 kts 227°
2026-05-06 17:05 53.34909 -2.28926 233 ft 22 kts 226°
2026-05-06 17:05 53.34819 -2.29091 224 ft 4 kts 229°
2026-05-06 17:06 53.34788 -2.29150 226 ft 12 kts 231°
2026-05-06 17:06 53.34701 -2.29305 221 ft 19 kts 213°
2026-05-06 17:06 53.34583 -2.29325 221 ft 17 kts 160°
2026-05-06 17:06 53.34562 -2.29181 229 ft 15 kts 58°
2026-05-06 17:07 53.34596 -2.29106 229 ft 0 kts 52°
2026-05-06 17:07 53.34648 -2.28998 231 ft 40 kts 51°
2026-05-06 17:08 53.34972 -2.28323 238 ft 109 kts 51°
2026-05-06 17:08 53.35588 -2.27065 269 ft 167 kts 53°
2026-05-06 17:08 53.36292 -2.25552 1058 ft 161 kts 54°
2026-05-06 17:08 53.36934 -2.24064 1919 ft 155 kts 57°
2026-05-06 17:09 53.37624 -2.22576 2299 ft 177 kts 44°
2026-05-06 17:09 53.38826 -2.21705 2536 ft 206 kts
2026-05-06 17:09 53.40244 -2.22448 2851 ft 230 kts 324°
2026-05-06 17:09 53.41290 -2.24653 3096 ft 257 kts 297°
2026-05-06 17:10 53.42084 -2.27390 3561 ft 273 kts 296°
2026-05-06 17:10 53.42918 -2.30330 4183 ft 281 kts 302°
2026-05-06 17:10 53.44092 -2.32853 5170 ft 269 kts 312°
2026-05-06 17:10 53.45298 -2.35220 6175 ft 266 kts 310°
2026-05-06 17:11 53.46466 -2.37627 7060 ft 267 kts 309°
2026-05-06 17:11 53.47605 -2.40097 7927 ft 267 kts 307°
2026-05-06 17:11 53.48702 -2.42601 8835 ft 268 kts 306°
2026-05-06 17:11 53.49695 -2.45261 9704 ft 271 kts 296°
2026-05-06 17:12 53.50252 -2.48267 10370 ft 281 kts 278°
2026-05-06 17:12 53.50040 -2.51616 10692 ft 303 kts 250°
2026-05-06 17:12 53.48949 -2.54774 11063 ft 324 kts 234°
2026-05-06 17:12 53.47458 -2.57753 11471 ft 342 kts 229°
2026-05-06 17:13 53.45914 -2.60848 12063 ft 348 kts 236°
2026-05-06 17:13 53.44718 -2.64380 12835 ft 350 kts 249°
2026-05-06 17:13 53.44031 -2.68293 13598 ft 352 kts 259°
2026-05-06 17:13 53.43562 -2.72346 14297 ft 355 kts 262°
2026-05-06 17:14 53.43176 -2.76400 14948 ft 359 kts 262°
2026-05-06 17:14 53.42796 -2.80549 15603 ft 362 kts 262°
2026-05-06 17:14 53.42394 -2.84739 16280 ft 365 kts 262°
2026-05-06 17:14 53.41963 -2.88957 16981 ft 369 kts 261°
2026-05-06 17:15 53.41505 -2.93208 17702 ft 372 kts 261°
2026-05-06 17:15 53.41027 -2.97495 18401 ft 376 kts 260°
2026-05-06 17:15 53.40536 -3.01821 19047 ft 379 kts 260°
2026-05-06 17:15 53.40140 -3.06212 19668 ft 382 kts 266°
2026-05-06 17:16 53.40137 -3.10615 20269 ft 385 kts 276°
2026-05-06 17:16 53.40651 -3.15032 20886 ft 388 kts 287°
2026-05-06 17:16 53.41728 -3.19195 21489 ft 392 kts 299°
2026-05-06 17:16 53.43164 -3.23111 22105 ft 396 kts 303°
2026-05-06 17:17 53.44739 -3.26917 22730 ft 400 kts 305°
2026-05-06 17:17 53.46389 -3.30701 23344 ft 403 kts 306°
2026-05-06 17:17 53.48067 -3.34501 23888 ft 407 kts 306°
2026-05-06 17:17 53.49750 -3.38339 24385 ft 410 kts 305°
2026-05-06 17:18 53.51408 -3.42170 24880 ft 413 kts 305°
2026-05-06 17:18 53.53092 -3.46106 25373 ft 416 kts 305°
2026-05-06 17:18 53.54779 -3.50086 25862 ft 419 kts 305°
2026-05-06 17:18 53.56472 -3.54101 26360 ft 422 kts 305°
2026-05-06 17:19 53.58173 -3.58149 26838 ft 425 kts 305°
2026-05-06 17:19 53.59752 -3.62379 27307 ft 429 kts 298°
2026-05-06 17:19 53.60969 -3.66977 27766 ft 432 kts 290°
2026-05-06 17:19 53.61725 -3.71896 28216 ft 437 kts 280°
2026-05-06 17:20 53.62113 -3.76983 28650 ft 441 kts 277°
2026-05-06 17:20 53.62375 -3.82077 29076 ft 444 kts 275°
2026-05-06 17:20 53.62579 -3.87286 29501 ft 448 kts 275°
2026-05-06 17:20 53.62761 -3.92543 29921 ft 451 kts 275°
2026-05-06 17:21 53.62945 -3.97823 30282 ft 454 kts 275°
2026-05-06 17:21 53.63137 -4.03152 30622 ft 457 kts 275°
2026-05-06 17:21 53.63333 -4.08508 30964 ft 459 kts 275°
2026-05-06 17:21 53.63538 -4.13883 31294 ft 461 kts 275°
2026-05-06 17:22 53.63743 -4.19290 31603 ft 464 kts 276°
2026-05-06 17:22 53.63945 -4.24659 31892 ft 466 kts 276°
2026-05-06 17:22 53.64149 -4.30135 32184 ft 469 kts 276°
2026-05-06 17:22 53.64356 -4.35622 32475 ft 471 kts 276°
2026-05-06 17:23 53.64559 -4.41139 32848 ft 471 kts 276°
2026-05-06 17:23 53.64757 -4.46641 33263 ft 470 kts 276°
2026-05-06 17:23 53.64956 -4.52141 33664 ft 470 kts 276°
2026-05-06 17:23 53.65147 -4.57638 34012 ft 470 kts 276°
2026-05-06 17:24 53.65334 -4.63131 34313 ft 469 kts 276°
2026-05-06 17:24 53.65518 -4.68620 34614 ft 468 kts 276°
2026-05-06 17:24 53.65698 -4.74026 34858 ft 469 kts 276°
2026-05-06 17:24 53.65879 -4.79510 35114 ft 469 kts 276°
2026-05-06 17:25 53.66060 -4.85005 35387 ft 469 kts 276°
2026-05-06 17:25 53.66243 -4.90487 35649 ft 468 kts 275°
2026-05-06 17:25 53.66421 -4.95960 35900 ft 468 kts 275°
2026-05-06 17:25 53.66596 -5.01442 36152 ft 468 kts 275°
2026-05-06 17:26 53.66767 -5.06916 36379 ft 468 kts 275°
2026-05-06 17:26 53.66937 -5.12398 36612 ft 468 kts 275°
2026-05-06 17:26 53.67104 -5.17798 36834 ft 467 kts 275°
2026-05-06 17:26 53.67269 -5.23265 37031 ft 468 kts 275°
2026-05-06 17:27 53.67426 -5.28750 37227 ft 468 kts 274°
2026-05-06 17:27 53.67579 -5.34236 37422 ft 468 kts 274°
2026-05-06 17:27 53.67729 -5.39715 37636 ft 468 kts 274°
2026-05-06 17:27 53.67878 -5.45190 37835 ft 467 kts 274°
2026-05-06 17:28 53.68198 -5.50643 37977 ft 467 kts 281°
2026-05-06 17:28 53.69431 -5.61465 38000 ft 472 kts 283°
2026-05-06 17:29 53.70798 -5.72223 37996 ft 472 kts 283°
2026-05-06 17:29 53.72181 -5.83052 37999 ft 472 kts 283°
2026-05-06 17:30 53.73542 -5.93887 37996 ft 472 kts 283°
2026-05-06 17:30 53.74884 -6.04738 37996 ft 472 kts 283°
2026-05-06 17:31 53.76206 -6.15522 37991 ft 472 kts 283°
2026-05-06 17:31 53.77528 -6.26394 37990 ft 472 kts 283°
2026-05-06 17:32 53.78839 -6.37261 37984 ft 471 kts 283°
2026-05-06 17:32 53.80138 -6.48117 37985 ft 471 kts 283°
2026-05-06 17:33 53.81428 -6.58981 37978 ft 471 kts 283°
2026-05-06 17:33 53.82696 -6.69757 37976 ft 469 kts 283°
2026-05-06 17:34 53.83961 -6.80581 37973 ft 469 kts 282°
2026-05-06 17:34 53.85216 -6.91415 37969 ft 469 kts 282°
2026-05-06 17:35 53.86460 -7.02244 37963 ft 469 kts 282°
2026-05-06 17:35 53.87687 -7.13014 37963 ft 469 kts 282°
2026-05-06 17:36 53.89522 -7.29301 37964 ft 469 kts 282°
2026-05-06 17:36 53.90732 -7.40161 37959 ft 469 kts 282°
2026-05-06 17:37 53.91931 -7.51016 37957 ft 468 kts 282°
2026-05-06 17:37 53.93111 -7.61792 37957 ft 468 kts 282°
2026-05-06 17:38 53.94291 -7.72655 37955 ft 468 kts 282°
2026-05-06 17:38 53.95461 -7.83530 37952 ft 468 kts 282°
2026-05-06 17:39 53.96620 -7.94400 37953 ft 468 kts 282°
2026-05-06 17:39 53.97762 -8.05203 37968 ft 468 kts 282°
2026-05-06 17:40 53.98897 -8.16043 37951 ft 465 kts 282°
2026-05-06 17:40 54.00019 -8.26853 37954 ft 464 kts 282°
2026-05-06 17:41 54.01130 -8.37656 37955 ft 464 kts 282°
2026-05-06 17:41 54.02231 -8.48458 37963 ft 464 kts 281°
2026-05-06 17:42 54.03313 -8.59178 37963 ft 462 kts 281°
2026-05-06 17:42 54.04392 -8.69967 37962 ft 462 kts 281°
2026-05-06 17:43 54.05460 -8.80755 37964 ft 462 kts 281°
2026-05-06 17:43 54.06519 -8.91543 37964 ft 462 kts 281°
2026-05-06 17:44 54.07560 -9.02270 37958 ft 462 kts 281°
2026-05-06 17:44 54.08599 -9.13072 37967 ft 462 kts 281°
2026-05-06 17:45 54.09628 -9.23864 37968 ft 462 kts 281°
2026-05-06 17:45 54.10647 -9.34666 37970 ft 462 kts 281°
2026-05-06 17:46 54.11650 -9.45400 37972 ft 462 kts 281°
2026-05-06 17:46 54.12648 -9.56200 37969 ft 461 kts 280°
2026-05-06 17:47 54.13634 -9.66977 37976 ft 459 kts 280°
2026-05-06 17:47 54.14609 -9.77743 37980 ft 459 kts 280°
2026-05-06 17:48 54.15568 -9.88442 37981 ft 459 kts 280°
2026-05-06 17:48 54.16524 -9.99214 37980 ft 459 kts 280°
2026-05-06 17:49 54.17470 -10.09994 37982 ft 459 kts 280°
2026-05-06 17:49 54.18407 -10.20779 37982 ft 459 kts 279°
2026-05-06 17:50 54.19328 -10.31497 37982 ft 459 kts 279°
2026-05-06 17:50 54.20245 -10.42286 37982 ft 459 kts 279°
2026-05-06 17:51 54.21152 -10.53085 37980 ft 459 kts 279°
2026-05-06 17:51 54.22050 -10.63885 37980 ft 459 kts 279°
2026-05-06 17:52 54.22790 -10.72873 37974 ft 460 kts 279°
2026-05-06 17:52 54.23814 -10.85463 37983 ft 460 kts 279°
2026-05-06 17:53 54.24685 -10.96308 37981 ft 460 kts 279°
2026-05-06 17:53 54.25547 -11.07153 37976 ft 459 kts 278°
2026-05-06 17:54 54.26252 -11.16134 37971 ft 458 kts 278°
2026-05-06 17:54 54.27227 -11.28694 37972 ft 458 kts 278°
2026-05-06 17:55 54.28056 -11.39514 37971 ft 458 kts 278°
2026-05-06 17:55 54.28875 -11.50325 37971 ft 458 kts 278°
2026-05-06 17:56 54.29548 -11.59322 37971 ft 458 kts 278°
2026-05-06 17:56 54.30479 -11.71903 37964 ft 458 kts 278°
2026-05-06 17:57 54.31141 -11.80975 37960 ft 458 kts 278°
2026-05-06 17:57 54.31919 -11.91745 37964 ft 458 kts 278°
2026-05-06 17:58 54.32691 -12.02584 37966 ft 459 kts 278°
2026-05-06 17:58 54.33454 -12.13429 37968 ft 459 kts 278°
2026-05-06 17:59 54.34207 -12.24279 37958 ft 459 kts 277°
2026-05-06 17:59 54.34945 -12.35059 37950 ft 459 kts 277°
2026-05-06 18:00 54.35681 -12.45932 37963 ft 459 kts 277°
2026-05-06 18:00 54.36405 -12.56801 37966 ft 458 kts 277°
2026-05-06 18:01 54.37118 -12.67649 37959 ft 458 kts 277°
2026-05-06 18:01 54.37820 -12.78496 37958 ft 458 kts 277°
2026-05-06 18:02 54.38509 -12.89278 37957 ft 458 kts 277°
2026-05-06 18:02 54.39193 -13.00138 37958 ft 458 kts 276°
2026-05-06 18:03 54.39869 -13.11024 37958 ft 459 kts 276°
2026-05-06 18:03 54.40535 -13.21918 37955 ft 459 kts 276°
2026-05-06 18:04 54.41186 -13.32735 37951 ft 459 kts 276°
2026-05-06 18:04 54.41832 -13.43631 37949 ft 459 kts 276°
2026-05-06 18:05 54.42469 -13.54529 37954 ft 459 kts 276°
2026-05-06 18:05 54.43096 -13.65432 37946 ft 459 kts 276°
2026-05-06 18:06 54.43708 -13.76261 37944 ft 459 kts 276°
2026-05-06 18:06 54.44315 -13.87161 37942 ft 459 kts 276°
2026-05-06 18:07 54.44912 -13.98075 37950 ft 459 kts 276°
2026-05-06 18:07 54.45499 -14.08981 37939 ft 458 kts 275°
2026-05-06 18:08 54.46076 -14.19877 37935 ft 458 kts 275°
2026-05-06 18:08 54.46639 -14.30709 37938 ft 458 kts 275°
2026-05-06 18:09 54.47195 -14.41610 37934 ft 458 kts 275°
2026-05-06 18:09 54.47742 -14.52519 37934 ft 458 kts 275°
2026-05-06 18:10 54.48280 -14.63432 37934 ft 458 kts 275°
2026-05-06 18:10 54.48805 -14.74286 37939 ft 459 kts 275°
2026-05-06 18:11 54.49323 -14.85213 37931 ft 459 kts 275°
2026-05-06 18:11 54.49832 -14.96158 37934 ft 459 kts 274°
2026-05-06 18:12 54.50267 -15.07111 37935 ft 459 kts 272°
2026-05-06 18:12 54.50448 -15.18087 37925 ft 459 kts 271°
2026-05-06 18:13 54.50592 -15.28999 37930 ft 459 kts 271°
2026-05-06 18:13 54.50764 -15.39991 37928 ft 460 kts 271°
2026-05-06 18:14 54.50948 -15.50983 37930 ft 460 kts 271°
2026-05-06 18:14 54.51126 -15.61970 37938 ft 460 kts 271°
2026-05-06 18:15 54.51293 -15.72948 37931 ft 459 kts 271°
2026-05-06 18:15 54.51449 -15.83858 37930 ft 459 kts 271°
2026-05-06 18:16 54.51594 -15.94853 37930 ft 460 kts 271°
2026-05-06 18:16 54.51730 -16.05850 37925 ft 460 kts 271°
2026-05-06 18:17 54.51855 -16.16774 37925 ft 460 kts 271°
2026-05-06 18:17 54.51971 -16.27768 37925 ft 460 kts 271°
2026-05-06 18:18 54.52077 -16.38773 37928 ft 460 kts 270°
2026-05-06 18:18 54.52173 -16.49795 37928 ft 461 kts 270°
2026-05-06 18:19 54.52259 -16.60819 37928 ft 461 kts 270°
2026-05-06 18:19 54.52334 -16.71773 37922 ft 461 kts 270°
2026-05-06 18:20 54.52401 -16.82794 37922 ft 461 kts 270°
2026-05-06 18:20 54.52457 -16.93823 37922 ft 461 kts 270°
2026-05-06 18:21 54.52503 -17.04844 37928 ft 461 kts 270°
2026-05-06 18:21 54.52539 -17.15799 37927 ft 461 kts 270°
2026-05-06 18:22 54.52565 -17.26832 37928 ft 461 kts 270°
2026-05-06 18:22 54.52581 -17.37855 37928 ft 461 kts 269°
2026-05-06 18:23 54.52587 -17.48876 37928 ft 460 kts 269°
2026-05-06 18:23 54.52583 -17.59899 37926 ft 460 kts 269°
2026-05-06 18:24 54.52569 -17.70843 37926 ft 460 kts 269°
2026-05-06 18:24 54.52545 -17.81870 37924 ft 460 kts 269°
2026-05-06 18:25 54.52511 -17.92893 37925 ft 460 kts 269°
2026-05-06 18:25 54.52467 -18.03914 37927 ft 461 kts 268°
2026-05-06 18:26 54.52413 -18.14870 37930 ft 461 kts 268°
2026-05-06 18:26 54.52349 -18.25906 37932 ft 461 kts 268°
2026-05-06 18:27 54.52275 -18.36949 37931 ft 461 kts 268°
2026-05-06 18:27 54.52191 -18.47989 37931 ft 461 kts 268°
2026-05-06 18:28 54.52097 -18.58949 37936 ft 462 kts 268°